When you browse on this site, cookies collect data to enhance your experience and personalize the content and advertising you see.
Visit our Privacy Policy to learn more. By continuing to use the site, you agree to this use of cookies and data.
  • en Suisse
  • Liste des pays
  • À 7 jours
  • Température de l'eau
  • Carte satellitaire
  • Carte météo
  • Widgets météo
  • user-avatar
    Se connecter

    Météo par heure à Barra

    Ce jour, 21 Mars, Jeudi

    Heure Température Précipitation Vent Pression Humidité
    00:00 +25°C° 0.4 mm 1 m/s 746 mmHg 96%
    01:00 +25°C° 0.4 mm 1 m/s 746 mmHg 96%
    02:00 +25°C° 0.5 mm 1 m/s 746 mmHg 96%
    03:00 +25°C° 0.5 mm 1 m/s 746 mmHg 96%
    04:00 +25°C° 0 mm 1 m/s 745 mmHg 97%
    05:00 +25°C° 0.8 mm 1 m/s 746 mmHg 97%
    06:00 +25°C° 0.8 mm 1 m/s 746 mmHg 96%
    07:00 +25°C° 0.8 mm 1 m/s 746 mmHg 96%
    08:00 +26°C° 0.4 mm 1 m/s 747 mmHg 92%
    09:00 +27°C° 0.4 mm 1 m/s 747 mmHg 89%
    10:00 +29°C° 0 mm 1 m/s 747 mmHg 80%
    11:00 +29°C° 0.5 mm 1 m/s 747 mmHg 77%
    12:00 +30°C° 0.5 mm 2 m/s 747 mmHg 74%
    13:00 +30°C° 0.5 mm 2 m/s 746 mmHg 70%
    14:00 +29°C° 0.3 mm 2 m/s 746 mmHg 73%
    15:00 +29°C° 0.3 mm 2 m/s 746 mmHg 75%
    16:00 +27°C° 0 mm 2 m/s 746 mmHg 81%
    17:00 +26°C° 0.2 mm 2 m/s 746 mmHg 85%
    18:00 +25°C° 0.2 mm 2 m/s 747 mmHg 88%
    19:00 +24°C° 0.2 mm 2 m/s 747 mmHg 91%
    20:00 +24°C° 0.6 mm 2 m/s 747 mmHg 92%
    21:00 +24°C° 0.6 mm 2 m/s 748 mmHg 93%
    22:00 +23°C° 0.6 mm 2 m/s 748 mmHg 94%
    23:00 +23°C° 1.5 mm 2 m/s 748 mmHg 95%

    Demain, 22 Mars, Vendredi

    Heure Température Précipitation Vent Pression Humidité
    00:00 +23°C° 1.5 mm 1 m/s 748 mmHg 96%
    01:00 +23°C° 1.5 mm 1 m/s 748 mmHg 97%
    02:00 +23°C° 2.8 mm 1 m/s 747 mmHg 97%
    03:00 +23°C° 2.8 mm 1 m/s 747 mmHg 98%
    04:00 +23°C° 2.8 mm 1 m/s 746 mmHg 98%
    05:00 +24°C° 2.3 mm 2 m/s 747 mmHg 98%
    06:00 +24°C° 2.3 mm 3 m/s 747 mmHg 98%
    07:00 +24°C° 2.3 mm 3 m/s 747 mmHg 98%
    08:00 +25°C° 1.5 mm 3 m/s 747 mmHg 98%
    09:00 +25°C° 1.5 mm 3 m/s 748 mmHg 97%
    10:00 +25°C° 1.5 mm 3 m/s 748 mmHg 97%
    11:00 +25°C° 1.8 mm 3 m/s 747 mmHg 97%
    12:00 +25°C° 1.8 mm 3 m/s 747 mmHg 97%
    13:00 +25°C° 1.8 mm 3 m/s 747 mmHg 97%
    14:00 +25°C° 1.9 mm 3 m/s 747 mmHg 97%
    15:00 +25°C° 1.9 mm 3 m/s 746 mmHg 97%
    16:00 +25°C° 1.9 mm 3 m/s 746 mmHg 97%
    17:00 +25°C° 0.7 mm 3 m/s 746 mmHg 97%
    18:00 +25°C° 0.7 mm 3 m/s 747 mmHg 97%
    19:00 +25°C° 0.7 mm 3 m/s 747 mmHg 97%
    20:00 +25°C° 1 mm 3 m/s 748 mmHg 97%
    21:00 +25°C° 1 mm 3 m/s 748 mmHg 97%
    22:00 +25°C° 1 mm 3 m/s 748 mmHg 97%
    23:00 +25°C° 1 mm 3 m/s 748 mmHg 97%

    Après-demain, 23 Mars, Samedi

    Heure Température Précipitation Vent Pression Humidité
    00:00 +24°C° 1 mm 3 m/s 748 mmHg 97%
    01:00 +24°C° 1 mm 3 m/s 748 mmHg 97%
    02:00 +24°C° 0.6 mm 3 m/s 747 mmHg 97%
    03:00 +25°C° 0.6 mm 3 m/s 747 mmHg 97%
    04:00 +25°C° 0.6 mm 3 m/s 747 mmHg 97%
    05:00 +25°C° 0 mm 3 m/s 747 mmHg 97%
    06:00 +25°C° 0 mm 3 m/s 747 mmHg 96%
    07:00 +25°C° 0 mm 3 m/s 747 mmHg 96%
    08:00 +26°C° 0.1 mm 3 m/s 748 mmHg 90%
    09:00 +27°C° 0.1 mm 3 m/s 748 mmHg 85%
    10:00 +28°C° 0.1 mm 3 m/s 749 mmHg 80%
    11:00 +29°C° 0.1 mm 3 m/s 749 mmHg 75%
    12:00 +30°C° 0.1 mm 3 m/s 748 mmHg 70%
    13:00 +31°C° 0.1 mm 3 m/s 748 mmHg 66%
    14:00 +30°C° 0 mm 3 m/s 747 mmHg 67%
    15:00 +30°C° 0 mm 3 m/s 747 mmHg 67%
    16:00 +30°C° 0 mm 3 m/s 746 mmHg 68%
    17:00 +29°C° 0 mm 3 m/s 747 mmHg 74%
    18:00 +27°C° 0 mm 2 m/s 747 mmHg 80%
    19:00 +26°C° 0 mm 2 m/s 747 mmHg 85%
    20:00 +26°C° 0 mm 2 m/s 748 mmHg 87%
    21:00 +26°C° 0 mm 2 m/s 748 mmHg 88%
    22:00 +25°C° 0 mm 2 m/s 749 mmHg 90%
    23:00 +25°C° 0.1 mm 2 m/s 749 mmHg 91%

    24 Mars, Dimanche

    Heure Température Précipitation Vent Pression Humidité
    00:00 +25°C° 0.1 mm 2 m/s 748 mmHg 92%
    01:00 +25°C° 0.1 mm 2 m/s 748 mmHg 93%
    02:00 +25°C° 0.2 mm 2 m/s 748 mmHg 94%
    03:00 +25°C° 0.2 mm 1 m/s 748 mmHg 95%
    04:00 +25°C° 0.2 mm 1 m/s 747 mmHg 96%
    05:00 +25°C° 0.3 mm 1 m/s 748 mmHg 96%
    06:00 +26°C° 0.3 mm 2 m/s 748 mmHg 96%
    07:00 +26°C° 0.3 mm 2 m/s 748 mmHg 96%
    08:00 +27°C° 1 mm 2 m/s 749 mmHg 93%
    09:00 +28°C° 1 mm 2 m/s 749 mmHg 90%
    10:00 +28°C° 1 mm 2 m/s 749 mmHg 87%
    11:00 +29°C° 0.9 mm 2 m/s 749 mmHg 85%
    12:00 +29°C° 0.9 mm 2 m/s 748 mmHg 83%
    13:00 +30°C° 0.9 mm 2 m/s 748 mmHg 81%
    14:00 +30°C° 0.6 mm 2 m/s 747 mmHg 81%
    15:00 +29°C° 0.6 mm 2 m/s 747 mmHg 82%
    16:00 +29°C° 0.6 mm 2 m/s 747 mmHg 82%
    17:00 +28°C° 0.5 mm 2 m/s 747 mmHg 86%
    18:00 +27°C° 0.5 mm 2 m/s 747 mmHg 90%
    19:00 +26°C° 0.5 mm 1 m/s 748 mmHg 94%
    20:00 +26°C° 0.2 mm 1 m/s 748 mmHg 94%
    21:00 +26°C° 0.2 mm 1 m/s 749 mmHg 95%
    22:00 +26°C° 0.2 mm 1 m/s 750 mmHg 96%
    23:00 +26°C° 0.2 mm 1 m/s 749 mmHg 96%

    25 Mars, Lundi

    Heure Température Précipitation Vent Pression Humidité
    00:00 +26°C° 0.2 mm 1 m/s 749 mmHg 96%
    01:00 +25°C° 0.2 mm 1 m/s 748 mmHg 97%
    02:00 +25°C° 0.3 mm 1 m/s 748 mmHg 97%
    03:00 +25°C° 0.3 mm 1 m/s 748 mmHg 97%
    04:00 +25°C° 0.3 mm 1 m/s 747 mmHg 97%
    05:00 +25°C° 0.5 mm 1 m/s 748 mmHg 97%
    06:00 +26°C° 0.5 mm 1 m/s 748 mmHg 96%
    07:00 +26°C° 0.5 mm 1 m/s 749 mmHg 96%
    08:00 +27°C° 0.5 mm 1 m/s 749 mmHg 89%
    09:00 +29°C° 0.5 mm 1 m/s 749 mmHg 82%
    10:00 +30°C° 0.5 mm 1 m/s 749 mmHg 75%
    11:00 +31°C° 0.2 mm 1 m/s 749 mmHg 72%
    12:00 +32°C° 0.2 mm 2 m/s 748 mmHg 68%
    13:00 +32°C° 0.2 mm 2 m/s 748 mmHg 65%
    14:00 +32°C° 0.5 mm 2 m/s 747 mmHg 68%
    15:00 +31°C° 0.5 mm 2 m/s 747 mmHg 70%
    16:00 +31°C° 0.5 mm 2 m/s 746 mmHg 73%
    17:00 +29°C° 0.1 mm 2 m/s 747 mmHg 79%
    18:00 +28°C° 0.1 mm 2 m/s 747 mmHg 86%
    19:00 +27°C° 0.1 mm 1 m/s 748 mmHg 92%
    20:00 +26°C° 0.1 mm 1 m/s 748 mmHg 93%
    21:00 +26°C° 0.1 mm 1 m/s 749 mmHg 94%
    22:00 +26°C° 0.1 mm 1 m/s 750 mmHg 95%
    23:00 +26°C° 0.1 mm 1 m/s 749 mmHg 95%

    26 Mars, Mardi

    Heure Température Précipitation Vent Pression Humidité
    00:00 +25°C° 0.1 mm 1 m/s 749 mmHg 96%
    01:00 +25°C° 0.1 mm 1 m/s 748 mmHg 96%
    02:00 +25°C° 0.1 mm 1 m/s 748 mmHg 96%
    03:00 +25°C° 0.1 mm 1 m/s 748 mmHg 97%
    04:00 +25°C° 0.1 mm 1 m/s 748 mmHg 97%
    05:00 +25°C° 0.1 mm 1 m/s 748 mmHg 96%
    06:00 +25°C° 0.1 mm 1 m/s 749 mmHg 96%
    07:00 +25°C° 0.1 mm 1 m/s 749 mmHg 95%
    08:00 +27°C° 0.1 mm 1 m/s 749 mmHg 87%
    09:00 +29°C° 0.1 mm 1 m/s 749 mmHg 80%
    10:00 +29°C° 0.1 mm 0 m/s 749 mmHg 72%
    11:00 +32°C° 0.1 mm 1 m/s 748 mmHg 70%
    12:00 +32°C° 0.1 mm 1 m/s 748 mmHg 67%
    13:00 +34°C° 0.1 mm 2 m/s 747 mmHg 64%
    14:00 +32°C° 0 mm 2 m/s 747 mmHg 66%
    15:00 +32°C° 0 mm 2 m/s 746 mmHg 68%
    16:00 +31°C° 0 mm 3 m/s 746 mmHg 70%
    17:00 +30°C° 0.1 mm 2 m/s 746 mmHg 77%
    18:00 +28°C° 0.1 mm 2 m/s 747 mmHg 85%
    19:00 +27°C° 0.1 mm 2 m/s 747 mmHg 92%
    20:00 +27°C° 0.2 mm 2 m/s 748 mmHg 93%
    21:00 +27°C° 0.2 mm 2 m/s 748 mmHg 94%
    22:00 +26°C° 0.2 mm 1 m/s 748 mmHg 95%
    23:00 +26°C° 0.6 mm 1 m/s 748 mmHg 96%
    Voir plus